CZ-2C R/B (45463 NORAD) Tracking and Keplerian Element Data

This shows tracking and keplerian element data for the satellite.

Feedback or suggestion? Click here.




ElementValue
Catalog45463
NameCZ-2C R/B
Epoch Orbit155
Epoch Day94.1760592
Epoch Year2020
RAAN149.8953
Inclination34.6816
Eccentricity0.0150569
Argument of Perigee155.1617
Mean Anonmoly205.6449
Mean Motion15.21382835
Decay Rate1.314E-05
L11 45463U 20021D 20094.17605920 .00001314 00000-0 42783-4 0 9999
L22 45463 34.6816 149.8953 0150569 155.1617 205.6449 15.21382835 1552

Live tracking and technical data element details for CZ-2C R/B (NORAD 45463). CZ-2C R/B can be tracked NOW for your location showing map with azimuth and elevation plus other details from your city location.

Track the satellite on the map from your city or location and see movement details for azimuth, elevation, latitude, longitude, range, height, and movement on the map or in text.







IsCatalogInMostPopularTable: catalog: 45463, numindb: 3
Update: records affected: 1



GetName: 45463 CZ-2C R/B

Hit Count: updated at: Tue, 07 Apr 2020 17:14:06 GMT